EW9255 Weather Reports


time (UTC)temp
F
wind
direction
speed
knots
gust
knots
rain 1hr
in
rain 24hr
in
rain mn
in
humidity
%
barometer
mb
20190321205205 37 97 0.0 0.0 0.00 0.00 0.00 76 1029.1
20190321204705 37 97 0.0 0.0 0.00 0.00 0.00 76 1029.2
20190321204204 37 97 0.0 0.0 0.00 0.00 0.00 75 1029.1
20190321203704 37 97 0.0 0.0 0.00 0.00 0.00 75 1029.1
20190321203205 37 97 0.0 0.0 0.00 0.00 0.00 74 1029.2
20190321202705 37 97 0.0 0.0 0.00 0.00 0.00 73 1029.2
20190321202205 38 97 0.0 0.0 0.00 0.00 0.00 74 1029.2
20190321201705 38 97 0.0 0.0 0.00 0.00 0.00 74 1029.2
20190321201205 38 97 0.0 0.0 0.00 0.00 0.00 74 1029.2
20190321200705 38 97 0.0 0.0 0.00 0.00 0.00 74 1029.3
20190321200205 38 97 0.0 0.0 0.00 0.00 0.00 73 1029.4
20190321195704 39 97 0.0 0.0 0.00 0.00 0.00 72 1029.4
20190321195205 39 97 0.0 0.0 0.00 0.00 0.00 72 1029.4
20190321194705 39 97 0.0 0.0 0.00 0.00 0.00 71 1029.4
20190321194205 39 97 0.0 0.0 0.00 0.00 0.00 70 1029.4
20190321193705 39 97 0.0 0.0 0.00 0.00 0.00 69 1029.3
20190321193205 40 97 0.0 0.0 0.00 0.00 0.00 70 1029.4
20190321192705 40 97 0.0 0.0 0.00 0.00 0.00 70 1029.6
20190321192205 40 97 0.0 0.0 0.00 0.00 0.00 70 1029.6
20190321191705 41 97 0.0 0.0 0.00 0.00 0.00 69 1029.7
20190321191205 41 97 0.0 0.0 0.00 0.00 0.00 69 1029.8
20190321190704 42 97 0.0 0.0 0.00 0.00 0.00 68 1029.8
20190321190205 42 97 0.0 0.0 0.00 0.00 0.00 67 1029.8
20190321185705 42 97 0.0 0.0 0.00 0.00 0.00 66 1029.8
20190321185205 43 97 0.0 0.0 0.00 0.00 0.00 65 1029.8
20190321184705 43 97 0.0 0.0 0.00 0.00 0.00 64 1029.7
20190321184204 44 97 0.0 0.0 0.00 0.00 0.00 63 1029.8
20190321183706 45 97 0.0 0.0 0.00 0.00 0.00 59 1029.9
20190321183205 45 97 0.0 0.0 0.00 0.00 0.00 59 1029.9
20190321182705 46 97 0.0 0.0 0.00 0.00 0.00 59 1030.0
20190321182205 47 97 0.0 0.0 0.00 0.00 0.00 58 1030.0
20190321181704 47 97 0.0 0.0 0.00 0.00 0.00 56 1030.0
20190321181205 48 97 0.0 0.0 0.00 0.00 0.00 53 1030.1
20190321180705 49 97 0.0 0.0 0.00 0.00 0.00 50 1030.2
20190321180205 50 97 0.0 0.0 0.00 0.00 0.00 51 1030.2
20190321175705 51 97 0.0 0.0 0.00 0.00 0.00 49 1030.3
20190321175205 51 97 0.0 0.0 0.00 0.00 0.00 47 1030.3
20190321174705 53 97 0.0 0.0 0.00 0.00 0.00 45 1030.5
20190321174205 54 97 0.0 0.0 0.00 0.00 0.00 44 1030.6
20190321173705 55 97 0.0 0.0 0.00 0.00 0.00 42 1030.7
20190321173205 56 97 0.0 0.0 0.00 0.00 0.00 39 1030.8
20190321172704 57 97 0.0 0.0 0.00 0.00 0.00 37 1030.9
20190321172205 58 97 0.0 0.0 0.00 0.00 0.00 36 1031.0
20190321171705 59 97 0.0 0.0 0.00 0.00 0.00 34 1031.1
20190321171205 60 97 0.0 0.0 0.00 0.00 0.00 33 1031.0
20190321170704 60 97 0.0 0.0 0.00 0.00 0.00 32 1030.9
20190321170205 61 97 0.0 0.9 0.00 0.00 0.00 31 1031.1
20190321165716 62 97 0.0 0.9 0.00 0.00 0.00 31 1031.1
20190321165232 62 97 0.0 2.6 0.00 0.00 0.00 30 1031.1
20190321164705 63 97 0.0 2.6 0.00 0.00 0.00 30 1031.2
20190321164205 63 97 0.0 2.6 0.00 0.00 0.00 30 1031.2
20190321163705 63 78 0.0 1.7 0.00 0.00 0.00 30 1031.2
20190321163205 63 120 0.0 1.7 0.00 0.00 0.00 31 1031.2
20190321162705 64 120 0.0 2.6 0.00 0.00 0.00 30 1031.2
20190321162205 64 152 0.0 2.6 0.00 0.00 0.00 31 1031.2
20190321161705 64 152 0.0 3.5 0.00 0.00 0.00 31 1031.3
20190321161204 64 152 0.0 3.5 0.00 0.00 0.00 30 1031.3
20190321160705 64 91 0.9 3.5 0.00 0.00 0.00 30 1031.3
20190321160205 64 124 0.9 3.5 0.00 0.00 0.00 28 1031.3
20190321155704 64 120 0.0 4.3 0.00 0.00 0.00 29 1031.3
20190321155205 64 97 0.9 4.3 0.00 0.00 0.00 29 1031.3
20190321154705 64 114 0.9 4.3 0.00 0.00 0.00 28 1031.3
20190321154205 64 124 0.9 3.5 0.00 0.00 0.00 28 1031.3
20190321153705 64 139 0.9 3.5 0.00 0.00 0.00 28 1031.5
20190321153205 64 119 0.9 3.5 0.00 0.00 0.00 28 1031.4
20190321152705 64 105 0.0 2.6 0.00 0.00 0.00 31 1031.3
20190321152205 64 109 0.0 2.6 0.00 0.00 0.00 32 1031.4
20190321151704 64 124 0.0 3.5 0.00 0.00 0.00 31 1031.4
20190321151204 63 85 0.9 6.1 0.00 0.00 0.00 31 1031.5
20190321150705 63 91 0.9 6.1 0.00 0.00 0.00 31 1031.4
20190321150205 63 138 0.9 6.1 0.00 0.00 0.00 31 1031.4
20190321145705 63 91 0.9 5.2 0.00 0.00 0.00 32 1031.5
20190321145205 63 101 0.9 3.5 0.00 0.00 0.00 33 1031.5
20190321144705 63 75 0.0 3.5 0.00 0.00 0.00 33 1031.5
20190321144205 63 329 0.0 5.2 0.00 0.00 0.00 32 1031.6
20190321143706 63 98 0.9 5.2 0.00 0.00 0.00 33 1031.5
20190321143205 62 133 0.9 4.3 0.00 0.00 0.00 33 1031.4
20190321142705 62 121 0.9 4.3 0.00 0.00 0.00 34 1031.5
20190321142205 63 112 1.7 4.3 0.00 0.00 0.00 32 1031.6
20190321141705 63 92 1.7 4.3 0.00 0.00 0.00 32 1031.7
20190321141205 63 109 0.9 4.3 0.00 0.00 0.00 33 1031.7
20190321140705 63 124 0.9 5.2 0.00 0.00 0.00 31 1031.7
20190321140205 63 125 0.9 5.2 0.00 0.00 0.00 32 1031.8
20190321135705 63 88 0.9 5.2 0.00 0.00 0.00 33 1031.8
20190321135205 63 105 0.9 5.2 0.00 0.00 0.00 32 1031.8
20190321134705 63 119 0.9 7.8 0.00 0.00 0.00 33 1032.0
20190321134204 62 116 1.7 7.8 0.00 0.00 0.00 33 1032.0
20190321133705 62 112 1.7 6.1 0.00 0.00 0.00 32 1032.1
20190321133205 62 170 0.9 6.1 0.00 0.00 0.00 34 1032.1
20190321132705 62 120 0.9 6.1 0.00 0.00 0.00 35 1032.2
20190321132206 62 129 0.9 4.3 0.00 0.00 0.00 34 1032.2
20190321131705 62 107 0.9 4.3 0.00 0.00 0.00 35 1032.3
20190321131205 61 163 0.9 5.2 0.00 0.00 0.00 36 1032.3
20190321130705 61 92 0.9 5.2 0.00 0.00 0.00 35 1032.4
20190321130205 61 169 1.7 5.2 0.00 0.00 0.00 36 1032.3
20190321125705 61 125 1.7 5.2 0.00 0.00 0.00 35 1032.4
20190321125205 60 103 1.7 4.3 0.00 0.00 0.00 36 1032.6
20190321124705 60 164 0.9 3.5 0.00 0.00 0.00 37 1032.6
20190321124205 59 86 0.9 4.3 0.00 0.00 0.00 37 1032.6
20190321123705 59 99 0.9 6.1 0.00 0.00 0.00 35 1032.4
20190321123204 59 216 0.9 6.1 0.00 0.00 0.00 35 1032.5
20190321122705 59 127 1.7 6.1 0.00 0.00 0.00 35 1032.6
20190321122205 59 159 1.7 6.1 0.00 0.00 0.00 33 1032.7
20190321121705 58 173 2.6 6.1 0.00 0.00 0.00 38 1032.7
20190321121205 58 117 2.6 6.1 0.00 0.00 0.00 36 1032.8
20190321120705 57 112 1.7 6.1 0.00 0.00 0.00 36 1032.8
20190321120205 57 97 1.7 6.1 0.00 0.00 0.00 36 1032.8
20190321115705 57 99 0.9 5.2 0.00 0.00 0.00 36 1033.0
20190321115204 56 132 0.9 5.2 0.00 0.00 0.00 39 1032.8
20190321114705 56 116 0.9 6.1 0.00 0.00 0.00 38 1033.0
20190321114205 56 89 0.9 6.1 0.00 0.00 0.00 38 1033.0
20190321113705 56 87 1.7 6.1 0.00 0.00 0.00 39 1033.0
20190321113205 55 124 1.7 5.2 0.00 0.00 0.00 39 1033.1
20190321112706 55 77 0.9 4.3 0.00 0.00 0.00 39 1033.2
20190321112205 55 104 0.9 5.2 0.00 0.00 0.00 42 1033.2
20190321111704 54 182 0.9 5.2 0.00 0.00 0.00 42 1033.2
20190321111205 54 130 0.9 9.6 0.00 0.00 0.00 43 1033.3
20190321110709 53 116 1.7 9.6 0.00 0.00 0.00 45 1033.3
20190321110205 53 177 2.6 9.6 0.00 0.00 0.00 44 1033.3
20190321105705 53 120 2.6 7.8 0.00 0.00 0.00 44 1033.2
20190321105205 52 160 1.7 7.8 0.00 0.00 0.00 45 1033.3
20190321104705 52 143 2.6 8.7 0.00 0.00 0.00 47 1033.1
20190321104205 52 109 2.6 8.7 0.00 0.00 0.00 47 1033.2
20190321103705 51 126 2.6 7.8 0.00 0.00 0.00 47 1033.1
20190321103205 51 129 2.6 12.2 0.00 0.00 0.00 47 1033.3
20190321102705 51 169 3.5 12.2 0.00 0.00 0.00 48 1033.2
20190321102205 51 125 2.6 12.2 0.00 0.00 0.00 47 1033.2
20190321101705 50 133 1.7 9.6 0.00 0.00 0.00 50 1033.2
20190321101205 50 120 1.7 9.6 0.00 0.00 0.00 51 1033.2
20190321100705 49 128 1.7 6.1 0.00 0.00 0.00 51 1033.1
20190321100205 49 80 0.9 7.8 0.00 0.00 0.00 52 1033.0
20190321095706 49 114 0.9 7.8 0.00 0.00 0.00 54 1033.1
20190321095205 48 161 1.7 5.2 0.00 0.00 0.00 53 1032.9
20190321094705 48 164 0.9 6.1 0.00 0.00 0.00 53 1032.9
20190321094205 47 115 1.7 6.1 0.00 0.00 0.00 55 1033.0
20190321093705 47 98 1.7 6.1 0.00 0.00 0.00 55 1033.0
20190321093205 47 84 0.9 5.2 0.00 0.00 0.00 57 1033.0
20190321092705 46 95 0.9 5.2 0.00 0.00 0.00 60 1032.9
20190321092205 46 131 0.9 6.1 0.00 0.00 0.00 61 1032.9
20190321091705 45 116 0.9 6.1 0.00 0.00 0.00 61 1032.8
20190321091205 44 117 1.7 6.1 0.00 0.00 0.00 60 1032.8
20190321090705 44 140 0.9 5.2 0.00 0.00 0.00 61 1032.8
20190321090205 43 87 0.9 8.7 0.00 0.00 0.00 65 1032.8
20190321085705 43 124 1.7 8.7 0.00 0.00 0.00 65 1032.8
20190321085205 42 107 2.6 6.1 0.00 0.00 0.00 67 1032.7
20190321084705 41 151 1.7 6.1 0.00 0.00 0.00 70 1032.6
20190321084205 41 128 1.7 6.1 0.00 0.00 0.00 73 1032.6
20190321083705 40 158 1.7 5.2 0.00 0.00 0.00 75 1032.6
20190321083205 39 195 0.9 3.5 0.00 0.00 0.00 79 1032.5
20190321082705 38 156 0.9 3.5 0.00 0.00 0.00 81 1032.4
20190321082204 37 144 0.0 3.5 0.00 0.00 0.00 83 1032.3
20190321081705 36 169 0.0 3.5 0.00 0.00 0.00 85 1032.3
20190321081205 35 169 0.0 3.5 0.00 0.00 0.00 88 1032.3
20190321080705 35 265 0.0 2.6 0.00 0.00 0.00 89 1032.1
20190321080205 34 278 0.0 2.6 0.00 0.00 0.00 90 1032.1
20190321075705 34 278 0.0 0.9 0.00 0.00 0.00 91 1032.1
20190321075205 33 339 0.0 0.9 0.00 0.00 0.00 92 1032.0
20190321074705 33 339 0.0 0.9 0.00 0.00 0.00 93 1031.8
20190321074205 32 339 0.0 0.9 0.00 0.00 0.00 93 1031.8
20190321073705 32 339 0.0 0.9 0.00 0.00 0.00 93 1031.8
20190321073205 31 341 0.0 0.9 0.00 0.00 0.00 94 1031.7
20190321072705 31 341 0.0 0.0 0.00 0.00 0.00 94 1031.6
20190321072205 31 339 0.0 0.0 0.00 0.00 0.00 94 1031.6
20190321071705 30 339 0.0 0.0 0.00 0.00 0.00 94 1031.4
20190321071205 30 339 0.0 0.0 0.00 0.00 0.00 94 1031.4
20190321070705 29 339 0.0 0.0 0.00 0.00 0.00 94 1031.4
20190321070205 29 339 0.0 0.0 0.00 0.00 0.00 94 1031.3
20190321065705 29 339 0.0 0.0 0.00 0.00 0.00 94 1031.2
20190321065205 28 339 0.0 0.0 0.00 0.00 0.00 94 1031.1
20190321064705 28 339 0.0 0.0 0.00 0.00 0.00 94 1031.1
20190321064205 27 339 0.0 0.0 0.00 0.00 0.00 94 1030.9
20190321063705 27 339 0.0 0.0 0.00 0.00 0.00 94 1030.9
20190321063205 27 339 0.0 0.0 0.00 0.00 0.00 94 1030.9
20190321062704 26 339 0.0 0.0 0.00 0.00 0.00 93 1030.7
20190321062205 26 339 0.0 0.0 0.00 0.00 0.00 93 1030.8
20190321061705 26 339 0.0 0.0 0.00 0.00 0.00 93 1030.7
20190321061205 26 339 0.0 0.0 0.00 0.00 0.00 93 1030.8
20190321060705 26 339 0.0 0.0 0.00 0.00 0.00 93 1030.7
20190321060204 26 339 0.0 0.0 0.00 0.00 0.00 93 1030.5
20190321055705 26 339 0.0 0.0 0.00 0.00 0.00 92 1030.4
20190321055205 26 339 0.0 0.0 0.00 0.00 0.00 92 1030.4
20190321054705 26 339 0.0 0.0 0.00 0.00 0.00 92 1030.4
20190321054205 26 339 0.0 0.0 0.00 0.00 0.00 92 1030.3
20190321053705 26 339 0.0 0.0 0.00 0.00 0.00 92 1030.3
20190321053204 26 339 0.0 0.0 0.00 0.00 0.00 92 1030.3
20190321052705 26 339 0.0 0.0 0.00 0.00 0.00 92 1030.3
20190321052205 26 143 0.0 0.0 0.00 0.00 0.00 92 1030.3
20190321051705 26 143 0.0 0.0 0.00 0.00 0.00 92 1030.1
20190321051205 26 143 0.0 0.0 0.00 0.00 0.00 92 1030.2
20190321050705 26 143 0.0 0.0 0.00 0.00 0.00 92 1030.1
20190321050205 26 143 0.0 0.0 0.00 0.00 0.00 92 1030.1
20190321045705 26 143 0.0 0.0 0.00 0.00 0.00 92 1030.2
20190321045205 26 143 0.0 0.0 0.00 0.00 0.00 92 1030.3
20190321044705 26 143 0.0 0.0 0.00 0.00 0.00 92 1030.2
20190321044205 26 143 0.0 0.0 0.00 0.00 0.00 92 1030.3
20190321043705 26 143 0.0 0.0 0.00 0.00 0.00 92 1030.4
20190321043205 26 143 0.0 0.0 0.00 0.00 0.00 92 1030.5
20190321042705 26 143 0.0 0.0 0.00 0.00 0.00 92 1030.6
20190321042205 26 143 0.0 0.0 0.00 0.00 0.00 92 1030.6
20190321041705 26 143 0.0 0.0 0.00 0.00 0.00 92 1030.7
20190321041205 26 143 0.0 0.0 0.00 0.00 0.00 91 1030.7
20190321040705 26 143 0.0 0.0 0.00 0.00 0.00 91 1030.7
20190321040205 26 143 0.0 0.0 0.00 0.00 0.00 91 1030.8
20190321035705 26 143 0.0 0.0 0.00 0.00 0.00 92 1030.7
20190321035205 26 143 0.0 0.0 0.00 0.00 0.00 92 1030.8
20190321034705 26 143 0.0 0.0 0.00 0.00 0.00 92 1030.8
20190321034205 26 143 0.0 0.0 0.00 0.00 0.00 92 1030.8
20190321033705 26 143 0.0 0.0 0.00 0.00 0.00 92 1030.8
20190321033205 26 143 0.0 0.0 0.00 0.00 0.00 92 1030.9
20190321032705 27 143 0.0 0.0 0.00 0.00 0.00 92 1030.9
20190321032205 27 143 0.0 0.0 0.00 0.00 0.00 91 1031.0
20190321031705 27 143 0.0 0.0 0.00 0.00 0.00 92 1031.0
20190321031205 27 143 0.0 0.0 0.00 0.00 0.00 91 1030.9
20190321030705 27 143 0.0 0.0 0.00 0.00 0.00 91 1031.0
20190321030205 27 143 0.0 0.0 0.00 0.00 0.00 91 1031.0
20190321025705 27 143 0.0 0.0 0.00 0.00 0.00 91 1031.0
20190321025205 27 143 0.0 0.0 0.00 0.00 0.00 91 1031.0
20190321024705 27 143 0.0 0.0 0.00 0.00 0.00 91 1031.1
20190321024205 27 143 0.0 0.0 0.00 0.00 0.00 91 1031.1
20190321023705 27 143 0.0 0.0 0.00 0.00 0.00 91 1031.1
20190321023205 27 143 0.0 0.0 0.00 0.00 0.00 91 1031.1
20190321022705 27 143 0.0 0.0 0.00 0.00 0.00 91 1031.1
20190321022205 27 143 0.0 0.0 0.00 0.00 0.00 91 1031.2
20190321021705 27 143 0.0 0.0 0.00 0.00 0.00 91 1031.1
20190321021206 27 143 0.0 0.0 0.00 0.00 0.00 90 1031.0
20190321020705 27 143 0.0 0.0 0.00 0.00 0.00 90 1031.1
20190321020205 27 143 0.0 0.0 0.00 0.00 0.00 90 1031.1
20190321015704 27 143 0.0 0.0 0.00 0.00 0.00 90 1031.1
20190321015205 27 143 0.0 0.0 0.00 0.00 0.00 90 1031.2
20190321014705 27 143 0.0 0.0 0.00 0.00 0.00 90 1031.2
20190321014205 27 143 0.0 0.0 0.00 0.00 0.00 90 1031.2
20190321013705 27 143 0.0 0.0 0.00 0.00 0.00 90 1031.2
20190321013205 27 143 0.0 0.0 0.00 0.00 0.00 90 1031.2
20190321012705 28 143 0.0 0.0 0.00 0.00 0.00 90 1031.3
20190321012205 28 143 0.0 0.0 0.00 0.00 0.00 90 1031.3
20190321011705 28 143 0.0 0.0 0.00 0.00 0.00 90 1031.3
20190321011205 28 143 0.0 0.0 0.00 0.00 0.00 89 1031.4
20190321010704 28 143 0.0 0.0 0.00 0.00 0.00 89 1031.5
20190321010205 28 143 0.0 0.0 0.00 0.00 0.00 89 1031.5
20190321005705 28 143 0.0 0.0 0.00 0.00 0.00 89 1031.5
20190321005205 28 143 0.0 0.0 0.00 0.00 0.00 89 1031.5
20190321004705 28 143 0.0 0.0 0.00 0.00 0.00 89 1031.5
20190321004205 28 143 0.0 0.0 0.00 0.00 0.00 89 1031.6
20190321003704 28 143 0.0 0.0 0.00 0.00 0.00 89 1031.6
20190321003205 28 143 0.0 0.0 0.00 0.00 0.00 89 1031.6
20190321002705 28 143 0.0 0.0 0.00 0.00 0.00 89 1031.6
20190321002205 28 143 0.0 0.0 0.00 0.00 0.00 89 1031.4
20190321001705 29 143 0.0 0.0 0.00 0.00 0.00 88 1031.6
20190321001205 29 143 0.0 0.0 0.00 0.00 0.00 88 1031.5
20190321000705 29 143 0.0 0.0 0.00 0.00 0.00 88 1031.7
20190321000205 29 143 0.0 0.0 0.00 0.00 0.00 88 1031.7
20190320235705 29 143 0.0 0.0 0.00 0.00 0.00 88 1031.7
20190320235205 29 143 0.0 0.0 0.00 0.00 0.00 88 1031.7
20190320234705 29 143 0.0 0.0 0.00 0.00 0.00 88 1031.6
20190320234205 29 143 0.0 0.0 0.00 0.00 0.00 88 1031.7
20190320233705 29 143 0.0 0.0 0.00 0.00 0.00 88 1031.8
20190320233205 29 143 0.0 0.0 0.00 0.00 0.00 88 1031.7
20190320232705 29 143 0.0 0.0 0.00 0.00 0.00 88 1031.7
20190320232205 29 143 0.0 0.0 0.00 0.00 0.00 88 1031.7
20190320231705 29 143 0.0 0.0 0.00 0.00 0.00 88 1031.8
20190320231205 29 143 0.0 0.0 0.00 0.00 0.00 88 1031.7
20190320230705 29 143 0.0 0.0 0.00 0.00 0.00 88 1031.6
20190320230205 30 143 0.0 0.0 0.00 0.00 0.00 88 1031.7
20190320225705 30 143 0.0 0.0 0.00 0.00 0.00 87 1031.7
20190320225205 30 143 0.0 0.0 0.00 0.00 0.00 87 1031.7
20190320224705 30 143 0.0 0.0 0.00 0.00 0.00 87 1031.8
20190320224205 30 143 0.0 0.0 0.00 0.00 0.00 87 1031.8
20190320223705 30 143 0.0 0.0 0.00 0.00 0.00 87 1031.8
20190320223205 30 143 0.0 0.0 0.00 0.00 0.00 87 1031.7
20190320222705 30 143 0.0 0.0 0.00 0.00 0.00 87 1031.8
20190320222204 30 143 0.0 0.0 0.00 0.00 0.00 87 1031.8
20190320221705 30 143 0.0 0.0 0.00 0.00 0.00 87 1031.7
20190320221205 30 143 0.0 0.0 0.00 0.00 0.00 87 1031.8
20190320220705 30 143 0.0 0.0 0.00 0.00 0.00 87 1031.8
20190320220205 30 143 0.0 0.0 0.00 0.00 0.00 86 1031.8
20190320215705 30 143 0.0 0.0 0.00 0.00 0.00 86 1031.8
20190320215205 31 143 0.0 0.0 0.00 0.00 0.00 86 1032.0
20190320214705 31 143 0.0 0.0 0.00 0.00 0.00 86 1032.0
20190320214205 31 143 0.0 0.0 0.00 0.00 0.00 85 1031.8
20190320213705 31 143 0.0 0.0 0.00 0.00 0.00 85 1032.0
20190320213205 31 143 0.0 0.0 0.00 0.00 0.00 85 1032.1
20190320212705 31 143 0.0 0.0 0.00 0.00 0.00 85 1032.1
20190320212205 31 143 0.0 0.0 0.00 0.00 0.00 85 1032.1
20190320211705 31 143 0.0 0.0 0.00 0.00 0.00 84 1032.0
20190320211205 31 143 0.0 0.0 0.00 0.00 0.00 84 1032.1
20190320210705 31 143 0.0 0.0 0.00 0.00 0.00 84 1032.1
20190320210205 32 143 0.0 0.0 0.00 0.00 0.00 84 1032.1
20190320205704 32 143 0.0 0.0 0.00 0.00 0.00 84 1032.2